Regional Weather Roundup
Issued by NWS

Home | Current Version | Previous Version | Graphics & Text | Print | Product List | Glossary On
Versions: 1 2 3 4 5 6 7 8 9 10 11 12 13 14 15 16 17 18 19 20 21 22 23 24 25 26 27 28 29 30 31 32 33 34 35 36 37 38 39 40 41 42 43 44 45 46 47
000
ASUS45 KSLC 281410
RWRUT

UTAH REGIONAL WEATHER ROUNDUP
NATIONAL WEATHER SERVICE SALT LAKE CITY UT
800 AM MDT SAT MAR 28 2015

UTZ001>011-023>025-281500-

NORTHERN UTAH

CITY           SKY/WX    TMP DP  RH WIND       PRES   REMARKS
BRIGHAM CITY   CLEAR     38  33  80 CALM      30.10S
HILL AFB       CLEAR     49  29  45 E13       30.11S
LOGAN          CLEAR     35  32  88 E6        30.09F WCI  30
OGDEN          CLEAR     48  30  49 S14       30.09S
PROVO AIRPORT  PTCLDY    39  32  75 CALM      30.15S
SALT LAKE CITY PTCLDY    53  33  46 S10       30.09S
VERNAL         CLEAR     39  25  57 W5        30.20R
WENDOVER       PTCLDY    45  27  49 CALM      30.11R
HEBER CITY     PTCLDY    30  27  86 SE3       30.21R
WEST JORDAN    CLEAR     54  32  43 S13       30.12R

$$

UTZ012>022-026-027-281500-

SOUTHERN/CENTRAL UTAH

CITY           SKY/WX    TMP DP  RH WIND       PRES   REMARKS
BLANDING       PTCLDY    42  27  55 N5        30.31R
BRYCE CANYON   PTCLDY    32  24  72 W3        30.32R
CEDAR CITY     CLEAR     36  24  62 SW3       30.22R
DELTA          CLEAR     38  28  66 SE5       30.15R WCI  34
HANKSVILLE     CLEAR     36  21  55 CALM      30.20R
MILFORD        CLEAR     36  24  62 SE12      30.19R WCI  28
MOAB/CYNLANDS  CLEAR     40  20  44 CALM      30.17R
PRICE          CLEAR     44  23  43 CALM      30.20S
ST GEORGE      MOSUNNY   52  27  37 SW3       30.17R
KANAB          CLEAR     34  27  75 NE7       30.27S WCI  28

$$

REGIONAL REPORTS     COLORADO/ARIZONA

CITY           SKY/WX    TMP DP  RH WIND       PRES   REMARKS
CRAIG, CO      SUNNY     30  27  88 CALM      30.23R
GRAND JUNCTION CLEAR     44  27  51 E9        30.20R
RIFLE          SUNNY     36  27  69 CALM      30.25R
MONTROSE       SUNNY     42  26  53 SE10      30.26R
CORTEZ         CLEAR     35  23  61 NE6       30.27R WCI  30
PAGE, AZ       CLEAR     52  24  33 SE5       30.19R
GRAND CANYON   PTCLDY    27  20  75 CALM      30.31S
KINGMAN        CLEAR     52  25  35 CALM      30.15R
FLAGSTAFF      PTCLDY    30  21  69 CALM      30.33R

$$

REGIONAL REPORTS    NEVADA/IDAHO/WYOMING

CITY           SKY/WX    TMP DP  RH WIND       PRES   REMARKS
LAS VEGAS, NV  CLEAR     64  26  23 SW7       30.04R
ELY            CLEAR     34  18  52 S9        30.23S WCI  27
ELKO           CLEAR     35  25  66 SW5       30.20R WCI  31
POCATELLO, ID  CLEAR     56  29  35 SW14      30.04R
BURLEY         CLEAR     55  29  36 W20       30.06R
EVANSTON, WY   PTCLDY    40  26  57 SW12      30.19F WCI  33
ROCK SPRINGS   PTCLDY    43  27  53 CALM      30.18S

$$


USA.gov is the U.S. government's official web portal to all federal, state and local government web resources and services.